TimeCDT,TemperatureF,Dew PointF,Humidity,Sea Level PressureIn,VisibilityMPH,Wind Direction,Wind SpeedMPH,Gust SpeedMPH,PrecipitationIn,Events,Conditions,WindDirDegrees,DateUTC
12:15 AM,28.4,23.0,80,30.18,10.0,NE,5.8,-,N/A,,Overcast,50,2012-11-03 05:15:00
12:35 AM,28.4,23.0,80,30.19,10.0,Calm,Calm,-,N/A,,Overcast,0,2012-11-03 05:35:00
12:55 AM,28.4,23.0,80,30.20,10.0,North,3.5,-,N/A,,Overcast,360,2012-11-03 05:55:00
1:15 AM,28.4,23.0,80,30.20,10.0,NNE,4.6,-,N/A,,Overcast,30,2012-11-03 06:15:00
1:35 AM,28.4,23.0,80,30.20,10.0,NNE,3.5,-,N/A,,Overcast,20,2012-11-03 06:35:00
1:55 AM,28.4,23.0,80,30.19,10.0,Calm,Calm,-,N/A,,Overcast,0,2012-11-03 06:55:00
2:15 AM,28.4,23.0,80,30.20,10.0,NNE,3.5,-,N/A,,Overcast,30,2012-11-03 07:15:00
2:35 AM,28.4,23.0,80,30.20,10.0,NNE,4.6,-,N/A,,Overcast,30,2012-11-03 07:35:00
2:55 AM,28.4,23.0,80,30.20,10.0,NE,5.8,-,N/A,,Overcast,40,2012-11-03 07:55:00
3:15 AM,28.4,23.0,80,30.20,10.0,NE,6.9,-,N/A,,Overcast,40,2012-11-03 08:15:00
3:35 AM,28.4,23.0,80,30.20,10.0,East,5.8,-,N/A,,Overcast,80,2012-11-03 08:35:00
3:55 AM,28.4,23.0,80,30.20,10.0,NNE,3.5,-,N/A,,Overcast,30,2012-11-03 08:55:00
4:15 AM,28.4,23.0,80,30.20,10.0,NNE,5.8,-,N/A,,Overcast,30,2012-11-03 09:15:00
4:35 AM,28.4,23.0,80,30.20,10.0,Calm,Calm,-,N/A,,Overcast,0,2012-11-03 09:35:00
4:55 AM,28.4,23.0,80,30.20,10.0,Calm,Calm,-,N/A,,Overcast,0,2012-11-03 09:55:00
5:15 AM,28.4,23.0,80,30.20,10.0,Calm,Calm,-,N/A,,Overcast,0,2012-11-03 10:15:00
5:35 AM,28.4,23.0,80,30.21,10.0,Calm,Calm,-,N/A,,Overcast,0,2012-11-03 10:35:00
5:55 AM,28.4,23.0,80,30.21,10.0,Calm,Calm,-,N/A,,Overcast,0,2012-11-03 10:55:00
6:35 AM,28.4,24.8,86,30.20,10.0,Calm,Calm,-,N/A,,Overcast,0,2012-11-03 11:35:00
6:55 AM,28.4,23.0,80,30.21,10.0,East,4.6,-,N/A,,Overcast,90,2012-11-03 11:55:00
7:15 AM,28.4,23.0,80,30.20,10.0,East,4.6,-,N/A,,Overcast,90,2012-11-03 12:15:00
7:35 AM,28.4,23.0,80,30.21,10.0,Calm,Calm,-,N/A,,Overcast,0,2012-11-03 12:35:00
7:55 AM,28.4,23.0,80,30.21,10.0,Calm,Calm,-,N/A,,Overcast,0,2012-11-03 12:55:00
8:15 AM,28.4,24.8,86,30.22,10.0,Calm,Calm,-,N/A,,Overcast,0,2012-11-03 13:15:00
8:35 AM,28.4,24.8,86,30.22,10.0,ENE,3.5,-,N/A,,Overcast,70,2012-11-03 13:35:00
8:55 AM,30.2,24.8,80,30.22,10.0,ENE,4.6,-,N/A,,Overcast,60,2012-11-03 13:55:00
9:15 AM,30.2,23.0,75,30.22,10.0,ENE,5.8,-,N/A,,Overcast,70,2012-11-03 14:15:00
9:35 AM,30.2,23.0,75,30.22,10.0,Calm,Calm,-,N/A,,Overcast,0,2012-11-03 14:35:00
9:55 AM,30.2,24.8,80,30.22,10.0,Calm,Calm,-,N/A,,Overcast,0,2012-11-03 14:55:00
10:35 AM,30.2,24.8,80,30.23,10.0,East,3.5,-,N/A,,Overcast,90,2012-11-03 15:35:00
10:55 AM,30.2,24.8,80,30.23,10.0,ENE,3.5,-,N/A,,Overcast,60,2012-11-03 15:55:00
11:15 AM,30.2,24.8,80,30.23,10.0,Calm,Calm,-,N/A,,Overcast,0,2012-11-03 16:15:00
11:35 AM,32.0,24.8,75,30.23,10.0,ESE,3.5,-,N/A,,Overcast,120,2012-11-03 16:35:00
11:55 AM,32.0,24.8,75,30.23,10.0,Calm,Calm,-,N/A,,Overcast,0,2012-11-03 16:55:00
12:15 PM,32.0,24.8,75,30.23,10.0,Calm,Calm,-,N/A,,Overcast,0,2012-11-03 17:15:00
12:35 PM,32.0,24.8,75,30.23,10.0,NE,3.5,-,N/A,,Overcast,40,2012-11-03 17:35:00
1:15 PM,32.0,24.8,75,30.23,10.0,Calm,Calm,-,N/A,,Overcast,0,2012-11-03 18:15:00
1:35 PM,32.0,23.0,69,30.23,10.0,Calm,Calm,-,N/A,,Overcast,0,2012-11-03 18:35:00
1:55 PM,32.0,24.8,75,30.23,10.0,Calm,Calm,-,N/A,,Overcast,0,2012-11-03 18:55:00
2:15 PM,32.0,23.0,69,30.22,10.0,Calm,Calm,-,N/A,,Overcast,0,2012-11-03 19:15:00
2:35 PM,32.0,23.0,69,30.22,10.0,NE,3.5,-,N/A,,Overcast,50,2012-11-03 19:35:00
2:55 PM,32.0,23.0,69,30.22,10.0,Calm,Calm,-,N/A,,Scattered Clouds,0,2012-11-03 19:55:00
3:15 PM,32.0,24.8,75,30.21,10.0,Calm,Calm,-,N/A,,Clear,0,2012-11-03 20:15:00
3:35 PM,33.8,24.8,70,30.21,10.0,NW,3.5,-,N/A,,Clear,310,2012-11-03 20:35:00
3:55 PM,33.8,23.0,65,30.21,10.0,North,4.6,-,N/A,,Mostly Cloudy,350,2012-11-03 20:55:00
4:15 PM,33.8,23.0,65,30.21,10.0,NE,3.5,-,N/A,,Scattered Clouds,50,2012-11-03 21:15:00
4:35 PM,32.0,23.0,69,30.21,10.0,NNE,4.6,-,N/A,,Clear,20,2012-11-03 21:35:00
4:55 PM,32.0,23.0,69,30.21,10.0,Calm,Calm,-,N/A,,Clear,0,2012-11-03 21:55:00
5:15 PM,32.0,23.0,69,30.21,10.0,North,4.6,-,N/A,,Clear,10,2012-11-03 22:15:00
5:35 PM,32.0,23.0,69,30.21,10.0,North,3.5,-,N/A,,Clear,10,2012-11-03 22:35:00
5:55 PM,32.0,23.0,69,30.21,10.0,Calm,Calm,-,N/A,,Clear,0,2012-11-03 22:55:00
6:15 PM,32.0,23.0,69,30.21,10.0,Calm,Calm,-,N/A,,Clear,0,2012-11-03 23:15:00
6:35 PM,30.2,23.0,75,30.21,10.0,NE,3.5,-,N/A,,Clear,40,2012-11-03 23:35:00
6:55 PM,30.2,23.0,75,30.21,10.0,NNE,3.5,-,N/A,,Clear,30,2012-11-03 23:55:00
7:15 PM,30.2,23.0,75,30.21,10.0,Calm,Calm,-,N/A,,Clear,0,2012-11-04 00:15:00
7:35 PM,28.4,23.0,80,30.22,10.0,Calm,Calm,-,N/A,,Clear,0,2012-11-04 00:35:00
7:55 PM,26.6,23.0,86,30.22,10.0,Calm,Calm,-,N/A,,Clear,0,2012-11-04 00:55:00
8:15 PM,26.6,23.0,86,30.22,10.0,Calm,Calm,-,N/A,,Clear,0,2012-11-04 01:15:00
8:35 PM,24.8,23.0,93,30.22,10.0,Calm,Calm,-,N/A,,Clear,0,2012-11-04 01:35:00
8:55 PM,24.8,23.0,93,30.22,10.0,Calm,Calm,-,N/A,,Clear,0,2012-11-04 01:55:00
9:35 PM,23.0,21.2,93,30.23,10.0,Calm,Calm,-,N/A,,Clear,0,2012-11-04 02:35:00
9:55 PM,21.2,21.2,100,30.23,10.0,Calm,Calm,-,N/A,,Clear,0,2012-11-04 02:55:00
10:15 PM,21.2,19.4,93,30.23,10.0,Calm,Calm,-,N/A,,Scattered Clouds,0,2012-11-04 03:15:00
10:35 PM,21.2,19.4,93,30.23,10.0,Calm,Calm,-,N/A,,Overcast,0,2012-11-04 03:35:00
10:55 PM,21.2,19.4,93,30.23,10.0,Calm,Calm,-,N/A,,Mostly Cloudy,0,2012-11-04 03:55:00
11:15 PM,21.2,19.4,93,30.23,10.0,Calm,Calm,-,N/A,,Clear,0,2012-11-04 04:15:00
11:35 PM,19.4,19.4,100,30.23,10.0,Calm,Calm,-,N/A,,Scattered Clouds,0,2012-11-04 04:35:00
11:55 PM,19.4,17.6,93,30.23,10.0,Calm,Calm,-,N/A,,Clear,0,2012-11-04 04:55:00